Showing default

EXPLORER 40 (INJUN-5), 3338

Orbit data source: Space-Track

EXPLORER 40 (INJUN-5), 3338 is a payload satellite owned by NASA LaRC (US) in LEO that was launched on Thu, 08 Aug 1968 UTC via an SCOUT B launch vehicle from the Air Force Western Test Range (AFWTR). Payload-class satellites include a variety of spacecraft equipped with specific instruments for various scientific and technological missions. These include communications satellites like Starlink; space stations such as the ISS; scientific satellites like the Hubble; Earth observation satellites from companies like Planet Labs, Umbra, and HawkEye 360; GPS; miniature CubeSats for education and research; and military/defense satellites.

Loading next visibility...
Identifier
3338, 1968-066B
Orbit
LEO
Last TLE update
6 hours ago
Origin
Manufacturer
Iowa
Mission
Civil Science
Bus & Motor
INJUN E, Unknown motor
Mass
70 kg wet, 70 kg dry
Launch date (UTC)
1968-08-08 (57 years ago)
Launch vehicle
SCOUT B
Launch site
Air Force Western Test Range (AFWTR)
Object type
Payload
Rocket body
Debris
Shape & HBR
Hex Cyl, 0.76 m
Radar Cross Section
0.609 m², Large (>1 m²)

Expand to show TLE details & history

TLE from 6 hours ago
0 EXPLORER 40 (INJUN-5)
1 03338U 68066B   25182.88904957  .00000063  00000-0  67918-4 0  9995
2 03338  80.6638 354.7942 1129753 297.8550  51.2533 12.23438545535478
Epoch: 2025-07-01T21:20Z
TLE epoch observation values (Epoch: 2025-07-01T21:20:13.882Z)
Latitude
-0.00007°
Longitude
114.55831°
Altitude
1,086.251 km
Speed
7.533 km/s
True Right ascension
23h 39m 10s
True Declination
0° 00' 00"
Sunlit
Object was in daylight at epoch
Visualization orbit readout
Latitude
75.8072°
Longitude
-105.98345°
Altitude
2,443.144 km
Speed
6.358 km/s
Apparent Right ascension
04h 59m 33s
Apparent Declination
38° 21' 33"
Sunlit
Object is in daylight
Visualization observer readout
Local Sidereal Time
15:30:01
Azimuth
342.401° N
Elevation
-9.085°
Doppler factor
1
Orbital elements
Apogee altitude
2,473.515 km
Perigee altitude
676.498 km
Semi-major axis
7,953.143 km
Eccentricity
0.11298
Inclination
80.6638°
RAAN
354.7942°
Arg. of periapsis
297.855°
True anomaly
Unknown
Mean anomaly
51.2533°
Eccentric anomaly
Unknown
Mean motion
3.0601 °/min
Orbital period
117.64 mins
BSTAR
0.000067918
Loading maneuver chart data...
Loading SW <> Apogee altitude chart data...
Loading historical data...
Loading historical data...
Loading historical data...
Loading historical data...
Loading historical data...
Loading historical data...
Loading historical data...

EXPLORER 40 (INJUN-5) Visibility forecast

Observer location: undefined°, undefined°

Span
Click to sort rows by Start time (UTC) header in descending order
Start Az.
Max El. time (UTC)
Max El. Az.
Max El.
End time (UTC)
End Az.
16 mins2025-07-02 11:10:43.597Z143.029° SSE2025-07-02 11:17:43.597Z77.4° E31.922°2025-07-02 11:26:43.597Z22.797° NE
18 mins2025-07-02 13:08:43.597Z218.776° SW2025-07-02 13:15:43.597Z288.344° WNW38.075°2025-07-02 13:26:43.597Z3.302° NNE
6 mins2025-07-02 15:16:43.597Z305.983° NW2025-07-02 15:18:43.597Z317.305° NNW12.373°2025-07-02 15:22:43.597Z338.004° N
22 mins2025-07-02 21:30:43.597Z3.425° NNE2025-07-02 21:41:43.597Z61.679° ENE31.05°2025-07-02 21:52:43.597Z125.057° SE
24 mins2025-07-02 23:29:43.597Z346.257° N2025-07-02 23:42:43.597Z250.697° W43.859°2025-07-02 23:53:43.597Z184.573° SSW
15 mins2025-07-03 01:31:43.597Z320.865° NNW2025-07-03 01:38:43.597Z287.642° WNW19.099°2025-07-03 01:46:43.597Z248.143° W
|